SYRACUSE 3B

Last updated on Sat Dec 13 2025 00:02:46 GMT+0000 (Coordinated Universal Time)

1 29273U 06033B 25345.63495530 .00000029 00000+0 00000+0 0 9998 2 29273 2.4194 82.4450 0004577 192.0364 38.0293 1.00273160 70794
UTC large
Height (km)
Speed (km/s)
/
Latitude / Longitude
Inclination (degrees)
Orbital Period (minutes)
Azimuth
Elevation
Range (km)
Doppler Factor

Next 0 passes for location: London (51.5072 / 0.1276)

Sorry there are no passes over London.